Location: Unspecified
(54.1780°N, 0.0000°E)
Time: 15:12:01
(UTC+00:00)

Explorer 7 - Pass Details

Date: 16 August 2020
Orbit: 485 x 679 km, 50.3° (Epoch: 23 September)

Event Time Altitude Azimuth Distance (km) Brightness Sun altitude
Rises 20:48:37 0° 267° (W) 2,662 11.1 -10.8°
Reaches altitude 10° 20:50:57 10° 261° (W) 1,744 9.9 -11.0°
Maximum altitude 20:54:42 44° 189° (S) 700 7.1 -11.4°
Enters shadow 20:57:11 18° 124° (ESE) 1,260 8.0 -11.7°
